QPF
0.04 0.02 0.01 0.00 0.00 0.00 0.00 0.00 0.00 0.00 0.00 0.00 0.00 0.00 0.00 0.00 0.00 0.00 0.00 0.00 0.00 0.00 0.00 0.00 0.00 0.00 0.00 0.00 0.00 0.00 0.00 0.00 0.00 0.00 0.00 0.00 0.00 0.04 0.03 0.00 0.00 0.05 0.04 0.06
0.03 0.01 0.00 0.00 0.00 0.00 0.00 0.00 0.00 0.00 0.00 0.00 0.00 0.00 0.00 0.00 0.00 0.00 0.00 0.00 0.00 0.00 0.00 0.00 0.00 0.00 0.00 0.00 0.00 0.00 0.00 0.00 0.00 0.00 0.00 0.00 0.00 0.00 0.00 0.00 0.00 0.01 0.04 0.05
0.00 0.00 0.00 0.00 0.00 0.00 0.00 0.00 0.00 0.00 0.00 0.00 0.00 0.00 0.00 0.00 0.00 0.00 0.00 0.00 0.00 0.00 0.00 0.00 0.00 0.00 0.00 0.00 0.00 0.00 0.00 0.00 0.00 0.00 0.00 0.00 0.00 0.00 0.00 0.00 0.00 0.00 0.01 0.02
0.02 0.00 0.00 0.00 0.00 0.00 0.00 0.00 0.00 0.00 0.00 0.00 0.00 0.00 0.00 0.00 0.00 0.00 0.00 0.00 0.00 0.00 0.00 0.00 0.00 0.00 0.00 0.00 0.00 0.00 0.00 0.00 0.00 0.00 0.00 0.00 0.00 0.00 0.00 0.00 0.00 0.00 0.00 0.00
0.00 0.00 0.00 0.00 0.00 0.01 0.00 0.00 0.00 0.00 0.00 0.00 0.00 0.00 0.00 0.00 0.00 0.00 0.00 0.00 0.00 0.00 0.00 0.00 0.00 0.00 0.00 0.00 0.00 0.00 0.00 0.00 0.00 0.00 0.00 0.00 0.00 0.00 0.00 0.00 0.00 0.00 0.00 0.00
0.00 0.00 0.00 0.00 0.00 0.00 0.01 0.00 0.00 0.00 0.00 0.00 0.00 0.00 0.00 0.00 0.00 0.00 0.00 0.00 0.00 0.00 0.00 0.00 0.00 0.00 0.00 0.00 0.00 0.00 0.00 0.00 0.00 0.00 0.00 0.00 0.00 0.00 0.00 0.00 0.00 0.00 0.00 0.00
0.00 0.00 0.00 0.00 0.00 0.00 0.00 0.00 0.00 0.00 0.00 0.00 0.00 0.00 0.00 0.00 0.00 0.00 0.00 0.00 0.00 0.00 0.00 0.00 0.00 0.00 0.00 0.00 0.00 0.00 0.00 0.00 0.00 0.00 0.00 0.00 0.00 0.00 0.00 0.00 0.00 0.00 0.00 0.00
0.00 0.00 0.00 0.00 0.00 0.00 0.00 0.00 0.00 0.00 0.00 0.00 0.00 0.00 0.00 0.00 0.00 0.00 0.00 0.00 0.00 0.00 0.00 0.00 0.00 0.00 0.00 0.00 0.00 0.00 0.00 0.00 0.00 0.00 0.00 0.00 0.00 0.00 0.00 0.00 0.00 0.00 0.00 0.00
0.00 0.00 0.00 0.00 0.00 0.00 0.00 0.00 0.00 0.00 0.00 0.00 0.00 0.00 0.00 0.00 0.00 0.00 0.00 0.00 0.00 0.00 0.00 0.00 0.00 0.00 0.00 0.00 0.00 0.00 0.00 0.00 0.00 0.00 0.00 0.00 0.00 0.00 0.00 0.00 0.00 0.00 0.00 0.00
0.00 0.00 0.00 0.00 0.00 0.00 0.00 0.00 0.00 0.00 0.00 0.00 0.00 0.00 0.00 0.00 0.00 0.00 0.00 0.00 0.00 0.00 0.00 0.00 0.00 0.00 0.00 0.00 0.00 0.00 0.00 0.00 0.00 0.00 0.00 0.00 0.00 0.00 0.00 0.00 0.00 0.00 0.00 0.00
0.00 0.00 0.00 0.00 0.00 0.00 0.00 0.00 0.00 0.00 0.00 0.00 0.00 0.00 0.00 0.00 0.00 0.00 0.00 0.00 0.00 0.00 0.00 0.00 0.00 0.00 0.00 0.00 0.00 0.00 0.00 0.00 0.00 0.00 0.00 0.00 0.00 0.00 0.00 0.00 0.00 0.00 0.00 0.00
0.00 0.00 0.00 0.00 0.00 0.00 0.00 0.00 0.00 0.00 0.00 0.00 0.00 0.00 0.00 0.00 0.00 0.00 0.00 0.00 0.00 0.00 0.00 0.00 0.00 0.00 0.00 0.00 0.00 0.00 0.00 0.00 0.00 0.00 0.00 0.00 0.00 0.00 0.00 0.00 0.00 0.00 0.00 0.00
0.00 0.00 0.00 0.00 0.00 0.00 0.00 0.00 0.00 0.00 0.00 0.00 0.00 0.00 0.00 0.00 0.00 0.00 0.00 0.00 0.00 0.00 0.00 0.00 0.00 0.00 0.00 0.00 0.00 0.00 0.00 0.00 0.00 0.00 0.00 0.00 0.00 0.00 0.00 0.00 0.00 0.00 0.00 0.00
0.00 0.00 0.00 0.00 0.00 0.00 0.00 0.00 0.00 0.00 0.00 0.00 0.00 0.00 0.00 0.00 0.00 0.00 0.00 0.00 0.00 0.00 0.00 0.00 0.00 0.00 0.00 0.00 0.00 0.00 0.00 0.00 0.00 0.00 0.00 0.00 0.00 0.00 0.00 0.00 0.00 0.00 0.00 0.00
0.00 0.00 0.00 0.00 0.00 0.00 0.00 0.00 0.00 0.00 0.00 0.00 0.00 0.00 0.00 0.00 0.00 0.00 0.00 0.00 0.00 0.00 0.00 0.00 0.00 0.00 0.00 0.00 0.00 0.00 0.00 0.00 0.00 0.00 0.00 0.00 0.00 0.00 0.00 0.00 0.00 0.00 0.00 0.00
0.00 0.00 0.00 0.00 0.00 0.00 0.00 0.00 0.00 0.00 0.00 0.00 0.00 0.00 0.00 0.00 0.00 0.00 0.00 0.00 0.00 0.00 0.00 0.00 0.00 0.00 0.00 0.00 0.00 0.00 0.00 0.00 0.00 0.00 0.00 0.00 0.00 0.00 0.00 0.00 0.00 0.00 0.00 0.00
0.00 0.00 0.00 0.00 0.00 0.00 0.00 0.00 0.00 0.00 0.00 0.00 0.00 0.00 0.00 0.00 0.00 0.00 0.00 0.00 0.00 0.00 0.00 0.00 0.00 0.00 0.00 0.00 0.00 0.00 0.00 0.00 0.00 0.00 0.00 0.00 0.00 0.00 0.00 0.00 0.00 0.00 0.00 0.00
0.00 0.00 0.00 0.00 0.00 0.00 0.00 0.00 0.00 0.00 0.00 0.00 0.00 0.00 0.00 0.00 0.00 0.00 0.00 0.00 0.00 0.00 0.00 0.00 0.00 0.00 0.00 0.00 0.00 0.00 0.00 0.00 0.00 0.00 0.00 0.00 0.00 0.00 0.00 0.00 0.00 0.00 0.00 0.00
0.00 0.00 0.00 0.00 0.00 0.00 0.00 0.00 0.00 0.00 0.00 0.00 0.00 0.00 0.00 0.00 0.00 0.00 0.00 0.00 0.00 0.00 0.00 0.00 0.00 0.00 0.00 0.00 0.00 0.00 0.00 0.00 0.00 0.00 0.00 0.00 0.00 0.00 0.00 0.00 0.00 0.00 0.00 0.00
0.00 0.00 0.00 0.00 0.00 0.00 0.00 0.00 0.00 0.00 0.00 0.00 0.00 0.00 0.00 0.00 0.00 0.00 0.00 0.00 0.00 0.00 0.00 0.00 0.00 0.00 0.00 0.00 0.00 0.00 0.00 0.00 0.00 0.00 0.00 0.00 0.00 0.00 0.00 0.00 0.00 0.00 0.00 0.00
0.00 0.00 0.00 0.00 0.00 0.00 0.00 0.00 0.00 0.00 0.00 0.00 0.00 0.00 0.00 0.00 0.00 0.00 0.00 0.00 0.00 0.00 0.00 0.00 0.00 0.00 0.00 0.00 0.00 0.00 0.00 0.00 0.00 0.00 0.00 0.00 0.00 0.00 0.00 0.00 0.00 0.00 0.00 0.00
0.00 0.00 0.00 0.00 0.00 0.00 0.00 0.00 0.00 0.00 0.00 0.00 0.00 0.00 0.00 0.00 0.00 0.00 0.00 0.00 0.00 0.00 0.00 0.00 0.00 0.00 0.00 0.00 0.00 0.00 0.00 0.00 0.00 0.00 0.00 0.00 0.00 0.00 0.00 0.00 0.00 0.00 0.00 0.00
0.00 0.00 0.00 0.00 0.00 0.00 0.00 0.00 0.00 0.00 0.00 0.00 0.00 0.00 0.00 0.00 0.00 0.00 0.00 0.00 0.00 0.00 0.00 0.00 0.00 0.00 0.00 0.00 0.00 0.00 0.00 0.00 0.00 0.00 0.00 0.00 0.00 0.00 0.00 0.00 0.00 0.00 0.00 0.00
0.00 0.00 0.00 0.00 0.00 0.00 0.00 0.00 0.00 0.00 0.00 0.00 0.00 0.00 0.00 0.00 0.00 0.00 0.00 0.00 0.00 0.00 0.00 0.00 0.00 0.00 0.00 0.00 0.00 0.00 0.00 0.00 0.00 0.00 0.00 0.00 0.00 0.00 0.00 0.00 0.00 0.00 0.00 0.00
0.00 0.00 0.00 0.00 0.00 0.00 0.00 0.00 0.00 0.00 0.00 0.00 0.00 0.00 0.00 0.00 0.00 0.00 0.00 0.00 0.00 0.00 0.00 0.00 0.00 0.00 0.00 0.00 0.00 0.00 0.00 0.00 0.00 0.00 0.00 0.00 0.00 0.00 0.00 0.00 0.00 0.00 0.00 0.00
0.00 0.00 0.00 0.00 0.00 0.00 0.00 0.00 0.00 0.00 0.00 0.00 0.00 0.00 0.00 0.00 0.00 0.00 0.00 0.00 0.00 0.00 0.00 0.00 0.00 0.00 0.00 0.00 0.00 0.00 0.00 0.00 0.00 0.00 0.00 0.00 0.00 0.00 0.00 0.00 0.00 0.00 0.00 0.00
MSLP
1013.73 1013.93 1013.38 1012.41 1014.03 1014.12 1014.83 1015.01 1014.96 1014.62 1014.07 1014.38 1014.40 1014.39 1014.32 1014.14 1013.98 1014.20 1014.41 1014.40 1014.28 1014.04 1013.54 1013.71 1013.92 1014.11 1014.21 1014.52 1014.69 1014.80 1014.76 1014.95 1015.14 1015.35 1015.50 1015.70 1015.74 1015.68 1015.64 1015.38 1015.24 1015.59 1015.81 1016.14
1013.73 1013.08 1013.47 1013.90 1014.42 1014.48 1014.67 1014.85 1014.72 1014.42 1014.04 1014.21 1014.51 1014.45 1014.39 1014.33 1014.15 1014.03 1014.18 1014.16 1014.17 1014.19 1014.18 1014.33 1014.36 1014.52 1014.90 1015.15 1015.18 1015.21 1015.24 1015.12 1015.04 1015.05 1015.31 1015.32 1015.28 1015.25 1015.18 1015.00 1015.11 1015.17 1015.39 1015.83
1012.92 1013.24 1013.67 1013.98 1014.41 1014.45 1014.39 1014.41 1014.60 1014.75 1014.55 1014.80 1014.88 1015.11 1014.79 1014.24 1013.93 1013.79 1013.94 1014.14 1014.29 1014.41 1014.68 1014.94 1014.98 1015.17 1015.23 1015.41 1015.51 1015.60 1015.43 1015.24 1015.16 1015.19 1015.12 1015.14 1015.17 1015.29 1015.33 1015.32 1015.34 1015.21 1015.15 1015.17
1013.47 1013.54 1013.77 1014.24 1014.50 1014.49 1014.52 1014.12 1014.25 1014.86 1015.33 1015.65 1015.51 1015.41 1014.74 1014.16 1013.96 1014.03 1014.20 1014.39 1014.55 1014.88 1014.99 1015.16 1015.30 1015.50 1015.67 1015.76 1015.76 1015.76 1015.65 1015.48 1015.28 1015.20 1015.28 1015.48 1015.61 1015.74 1015.47 1015.38 1015.19 1014.98 1014.66 1014.68
1014.44 1014.04 1014.14 1014.67 1014.95 1014.75 1014.53 1014.17 1014.84 1015.42 1015.98 1016.13 1016.40 1016.52 1014.52 1014.17 1014.29 1014.15 1014.26 1014.50 1014.82 1015.07 1015.07 1015.33 1015.40 1015.58 1015.87 1016.03 1016.13 1016.07 1015.85 1015.70 1015.53 1015.31 1015.24 1015.47 1015.58 1015.74 1015.54 1015.35 1015.22 1014.96 1014.69 1014.33
1015.04 1014.94 1015.27 1015.53 1015.49 1015.43 1015.34 1015.22 1015.85 1016.44 1017.01 1017.31 1016.61 1016.68 1015.00 1014.30 1013.45 1014.01 1014.51 1014.80 1015.00 1015.31 1015.47 1015.56 1015.68 1015.97 1016.32 1016.37 1016.43 1016.35 1016.21 1015.98 1015.80 1015.67 1015.51 1015.53 1015.56 1015.60 1015.67 1015.51 1015.40 1015.08 1014.72 1014.52
1015.98 1016.49 1016.49 1016.23 1015.95 1016.07 1015.95 1016.12 1017.48 1018.27 1018.35 1017.61 1016.76 1016.72 1014.37 1013.41 1013.19 1013.48 1014.28 1014.74 1015.06 1015.33 1015.62 1015.88 1016.09 1016.29 1016.53 1016.74 1016.78 1016.69 1016.55 1016.42 1016.21 1016.02 1015.89 1015.78 1015.73 1015.67 1015.82 1015.80 1015.71 1015.50 1015.21 1015.00
1015.96 1017.10 1016.82 1016.85 1016.80 1016.64 1016.57 1016.22 1017.14 1017.97 1018.38 1017.77 1016.94 1015.86 1013.82 1012.90 1012.88 1013.27 1013.79 1014.44 1015.00 1015.42 1015.61 1015.93 1016.17 1016.48 1016.70 1016.90 1016.93 1016.88 1016.86 1016.80 1016.60 1016.45 1016.35 1016.18 1016.05 1016.06 1016.10 1016.07 1015.98 1016.03 1015.96 1015.75
1015.83 1017.09 1017.46 1017.30 1017.23 1016.79 1016.76 1016.44 1016.55 1017.47 1017.85 1017.89 1016.63 1015.18 1014.17 1013.42 1013.47 1013.71 1014.12 1014.65 1015.07 1015.50 1015.69 1015.96 1016.24 1016.51 1016.79 1017.04 1017.13 1017.19 1017.20 1017.16 1017.02 1016.87 1016.72 1016.73 1016.64 1016.52 1016.56 1016.51 1016.42 1016.42 1016.26 1016.04
1015.07 1016.68 1017.42 1017.43 1017.30 1016.81 1016.46 1016.20 1016.85 1017.76 1018.27 1017.88 1016.80 1015.21 1013.92 1014.00 1013.93 1013.96 1014.28 1014.74 1015.19 1015.49 1015.80 1016.09 1016.38 1016.67 1016.91 1017.08 1017.28 1017.41 1017.50 1017.51 1017.43 1017.30 1017.29 1017.39 1017.25 1017.21 1017.21 1017.04 1017.06 1016.92 1016.67 1016.37
1013.65 1014.96 1017.03 1017.16 1016.99 1016.32 1016.24 1016.37 1016.71 1017.22 1017.82 1017.59 1016.96 1014.89 1013.17 1013.00 1013.19 1013.72 1014.17 1014.63 1015.06 1015.51 1015.96 1016.30 1016.55 1016.78 1016.97 1017.23 1017.48 1017.73 1017.83 1017.88 1017.90 1017.93 1017.94 1017.97 1017.96 1017.91 1017.87 1017.75 1017.68 1017.49 1017.17 1016.90
1013.23 1014.51 1016.04 1016.58 1016.33 1016.28 1016.08 1016.26 1016.40 1016.92 1017.58 1017.62 1016.91 1014.72 1013.16 1012.88 1013.21 1013.51 1014.09 1014.51 1014.91 1015.34 1015.92 1016.32 1016.55 1016.90 1017.32 1017.64 1017.84 1018.06 1018.24 1018.34 1018.38 1018.41 1018.48 1018.62 1018.64 1018.67 1018.55 1018.51 1018.31 1017.99 1017.72 1017.48
1013.09 1014.53 1016.10 1017.06 1017.24 1016.76 1016.47 1016.25 1016.12 1016.54 1017.03 1017.03 1016.61 1015.00 1013.53 1013.20 1013.44 1013.59 1013.96 1014.36 1014.90 1015.41 1015.91 1016.39 1016.73 1017.12 1017.54 1017.94 1018.14 1018.38 1018.62 1018.77 1018.76 1018.84 1018.99 1019.23 1019.33 1019.34 1019.25 1019.21 1018.79 1018.55 1018.26 1017.94
1012.94 1014.25 1015.05 1015.65 1015.32 1015.36 1015.78 1015.83 1015.91 1016.35 1017.00 1016.32 1015.72 1014.93 1014.28 1013.71 1013.55 1013.67 1013.94 1014.25 1014.82 1015.40 1015.88 1016.44 1016.93 1017.35 1017.76 1018.08 1018.32 1018.69 1018.99 1019.04 1019.08 1019.21 1019.51 1019.83 1019.89 1019.77 1019.72 1019.45 1019.17 1018.94 1018.87 1018.38
1013.45 1014.74 1015.42 1015.65 1015.51 1015.46 1015.32 1015.33 1015.56 1015.87 1015.62 1015.70 1015.07 1014.32 1013.57 1013.27 1013.15 1013.28 1013.64 1014.26 1014.91 1015.47 1015.99 1016.42 1017.05 1017.60 1018.00 1018.32 1018.64 1018.93 1019.16 1019.24 1019.37 1019.69 1019.94 1020.11 1020.04 1019.85 1019.81 1019.67 1019.76 1019.52 1019.43 1019.40
1014.16 1015.28 1015.81 1016.18 1015.87 1015.62 1015.41 1015.00 1014.96 1015.11 1015.07 1014.96 1014.72 1013.93 1012.79 1012.72 1012.87 1013.24 1013.78 1014.19 1014.79 1015.36 1016.00 1016.57 1017.12 1017.63 1018.19 1018.55 1018.91 1019.21 1019.48 1019.62 1019.76 1020.03 1020.17 1020.22 1020.06 1020.09 1020.22 1020.21 1020.27 1020.38 1020.45 1020.21
1014.44 1015.40 1016.35 1016.69 1016.08 1015.59 1014.93 1013.73 1013.94 1014.03 1013.92 1014.03 1014.01 1013.26 1012.63 1012.88 1012.95 1013.19 1013.71 1014.07 1014.76 1015.41 1016.19 1016.68 1017.23 1017.73 1018.27 1018.72 1019.10 1019.44 1019.71 1019.71 1019.85 1019.98 1020.19 1020.25 1020.58 1020.64 1020.73 1020.82 1021.03 1021.14 1021.06 1020.93
1014.36 1015.39 1016.10 1016.64 1016.43 1015.51 1013.29 1012.50 1012.47 1012.83 1013.10 1013.20 1013.03 1012.64 1012.53 1012.67 1012.93 1013.20 1013.54 1014.14 1015.00 1015.65 1016.20 1016.87 1017.43 1017.92 1018.39 1018.78 1019.16 1019.45 1019.68 1019.75 1019.98 1020.16 1020.31 1020.46 1020.81 1021.06 1021.33 1021.43 1021.64 1021.81 1021.65 1021.57
1014.08 1015.03 1015.94 1016.29 1016.24 1014.47 1013.15 1012.44 1012.17 1012.33 1012.41 1012.35 1012.53 1012.48 1012.38 1012.65 1013.03 1013.60 1013.86 1014.27 1015.05 1015.71 1016.27 1016.97 1017.56 1018.06 1018.50 1018.80 1019.17 1019.46 1019.73 1020.02 1020.19 1020.41 1020.50 1020.60 1021.08 1021.39 1021.91 1021.84 1022.20 1022.32 1022.15 1022.27
1014.09 1014.54 1015.60 1015.83 1015.52 1014.07 1012.43 1011.76 1011.48 1011.65 1011.87 1011.38 1011.73 1012.18 1012.40 1012.73 1013.57 1014.06 1014.51 1014.83 1015.51 1015.97 1016.54 1017.18 1017.75 1018.07 1018.39 1018.71 1019.20 1019.60 1019.83 1020.13 1020.33 1020.60 1020.72 1020.85 1021.20 1021.79 1022.17 1022.32 1022.67 1022.71 1022.56 1022.57
1014.26 1014.64 1014.93 1014.91 1014.63 1013.22 1011.86 1011.54 1011.46 1011.92 1012.08 1011.20 1011.44 1011.95 1012.51 1012.99 1013.43 1013.76 1014.44 1015.04 1015.53 1016.08 1016.61 1017.19 1017.61 1018.16 1018.43 1018.76 1019.09 1019.71 1020.14 1020.37 1020.51 1020.66 1020.74 1021.07 1021.61 1022.10 1022.42 1022.69 1022.78 1022.79 1022.90 1023.03
1013.53 1013.91 1014.07 1014.17 1014.01 1012.91 1011.65 1011.69 1011.79 1011.71 1011.55 1011.66 1011.89 1012.20 1012.53 1012.93 1013.46 1013.94 1014.50 1015.18 1015.78 1016.25 1016.73 1017.18 1017.79 1018.25 1018.60 1018.80 1019.02 1019.84 1020.40 1020.58 1020.63 1020.62 1021.03 1021.52 1021.91 1022.17 1022.54 1022.74 1022.80 1022.89 1023.06 1023.27
1012.82 1012.76 1012.85 1012.98 1012.61 1011.79 1011.39 1011.46 1011.44 1011.53 1011.82 1012.03 1012.12 1012.37 1012.67 1013.09 1013.44 1013.81 1014.40 1015.05 1015.66 1016.07 1016.61 1017.04 1017.56 1018.15 1018.61 1018.92 1019.24 1019.86 1020.24 1020.48 1020.66 1020.98 1021.36 1021.66 1021.92 1022.11 1022.31 1022.54 1022.66 1022.84 1022.98 1023.20
1012.30 1012.02 1012.33 1012.40 1011.87 1011.65 1011.57 1011.64 1011.68 1011.89 1012.18 1012.37 1012.53 1012.67 1012.83 1013.15 1013.43 1013.83 1014.21 1014.78 1015.41 1015.92 1016.43 1016.89 1017.42 1018.00 1018.49 1018.73 1019.09 1019.59 1020.14 1020.37 1020.63 1021.07 1021.41 1021.65 1021.93 1022.13 1022.21 1022.19 1022.27 1022.60 1022.76 1022.91
1012.22 1012.03 1012.13 1012.15 1011.82 1011.77 1011.80 1011.64 1011.91 1012.32 1012.56 1012.84 1013.07 1013.15 1013.26 1013.41 1013.63 1013.83 1014.06 1014.47 1015.00 1015.52 1016.06 1016.54 1016.95 1017.34 1017.85 1018.42 1018.84 1019.29 1019.85 1020.15 1020.50 1020.79 1021.09 1021.49 1021.80 1022.07 1022.25 1022.30 1022.30 1022.49 1022.53 1022.54
1011.92 1011.73 1012.02 1012.08 1011.79 1011.60 1011.75 1011.88 1012.24 1012.64 1012.97 1013.20 1013.38 1013.55 1013.64 1013.67 1013.83 1013.92 1014.05 1014.12 1014.43 1015.01 1015.49 1016.02 1016.41 1016.83 1017.51 1018.00 1018.44 1018.95 1019.38 1019.73 1020.29 1020.68 1020.89 1021.19 1021.64 1021.93 1022.06 1022.23 1022.45 1022.42 1022.42 1022.37
Thickness
5523 5525 5539 5569 5562 5563 5561 5565 5567 5578 5595 5593 5599 5603 5612 5622 5632 5634 5641 5647 5653 5662 5675 5678 5682 5686 5690 5691 5692 5690 5692 5695 5697 5695 5692 5690 5691 5691 5690 5693 5693 5688 5685 5682
5520 5538 5546 5553 5555 5559 5561 5557 5564 5579 5589 5590 5591 5597 5609 5613 5624 5632 5637 5642 5648 5656 5660 5667 5675 5678 5678 5677 5680 5682 5682 5683 5685 5687 5687 5690 5690 5690 5689 5688 5685 5682 5681 5677
5536 5540 5545 5550 5551 5555 5560 5560 5562 5568 5577 5580 5586 5585 5596 5612 5624 5632 5637 5640 5644 5650 5649 5654 5661 5665 5667 5668 5670 5672 5674 5677 5678 5679 5680 5679 5680 5682 5683 5682 5678 5676 5673 5672
5527 5538 5543 5545 5550 5556 5551 5572 5571 5562 5561 5556 5581 5567 5587 5605 5612 5621 5626 5627 5633 5636 5642 5648 5653 5655 5657 5659 5662 5663 5665 5668 5671 5672 5671 5670 5667 5665 5670 5672 5673 5673 5671 5668
5520 5532 5540 5542 5546 5554 5557 5570 5559 5560 5557 5560 5566 5558 5588 5597 5602 5613 5620 5623 5623 5629 5635 5639 5644 5647 5648 5650 5651 5652 5655 5658 5660 5663 5664 5662 5661 5659 5660 5661 5662 5664 5663 5662
5516 5527 5532 5534 5538 5543 5549 5552 5548 5548 5545 5530 5562 5559 5578 5587 5613 5609 5612 5615 5619 5622 5626 5630 5634 5635 5634 5637 5639 5642 5645 5648 5650 5651 5653 5654 5654 5653 5652 5652 5652 5652 5654 5654
5504 5506 5516 5527 5537 5537 5544 5537 5508 5515 5503 5528 5560 5555 5587 5600 5605 5610 5608 5610 5613 5616 5618 5620 5623 5624 5626 5626 5627 5632 5633 5636 5638 5640 5642 5643 5644 5644 5643 5641 5640 5641 5641 5640
5510 5519 5515 5518 5524 5531 5536 5541 5518 5519 5511 5535 5554 5554 5583 5599 5605 5607 5609 5608 5608 5609 5611 5613 5615 5615 5617 5617 5618 5621 5622 5624 5626 5628 5630 5631 5632 5632 5631 5630 5629 5626 5625 5624
5511 5504 5505 5513 5520 5529 5530 5529 5546 5530 5534 5504 5540 5569 5582 5587 5590 5596 5597 5600 5601 5602 5603 5606 5607 5607 5608 5607 5609 5610 5611 5612 5614 5616 5618 5618 5619 5619 5618 5617 5616 5614 5614 5615
5517 5505 5505 5511 5516 5527 5533 5543 5531 5494 5523 5529 5531 5555 5567 5572 5580 5588 5591 5590 5592 5594 5595 5597 5596 5597 5597 5598 5598 5598 5600 5600 5602 5604 5604 5603 5605 5604 5603 5604 5602 5602 5602 5603
5535 5522 5508 5512 5515 5528 5530 5531 5535 5531 5520 5531 5533 5549 5580 5583 5584 5581 5584 5585 5585 5587 5585 5585 5586 5588 5588 5586 5586 5586 5587 5588 5589 5590 5590 5589 5590 5590 5590 5590 5589 5588 5589 5589
5536 5524 5511 5518 5525 5528 5530 5534 5537 5516 5528 5507 5513 5543 5576 5577 5577 5577 5577 5580 5582 5580 5577 5577 5578 5578 5576 5574 5574 5575 5575 5576 5577 5577 5576 5575 5575 5575 5575 5575 5575 5576 5575 5575
5537 5514 5494 5495 5509 5518 5516 5529 5539 5534 5518 5507 5504 5537 5563 5565 5568 5572 5572 5575 5574 5572 5571 5569 5569 5568 5565 5564 5565 5564 5564 5564 5565 5564 5564 5562 5561 5561 5561 5560 5563 5563 5563 5563
5539 5526 5523 5508 5525 5526 5517 5530 5532 5527 5515 5538 5526 5547 5552 5556 5560 5564 5566 5568 5566 5565 5565 5561 5561 5559 5557 5557 5557 5555 5553 5554 5554 5554 5552 5549 5549 5549 5548 5550 5552 5552 5551 5551
5530 5504 5506 5528 5527 5511 5529 5533 5528 5510 5533 5515 5543 5548 5557 5556 5560 5563 5563 5562 5560 5560 5558 5556 5553 5551 5549 5548 5547 5545 5545 5546 5544 5542 5540 5539 5539 5541 5541 5541 5539 5539 5538 5536
5521 5492 5499 5498 5526 5521 5523 5529 5534 5531 5534 5533 5534 5541 5557 5562 5562 5561 5559 5559 5559 5558 5554 5549 5547 5545 5540 5539 5538 5537 5535 5535 5534 5531 5531 5530 5532 5531 5529 5528 5527 5525 5522 5521
5515 5495 5482 5490 5522 5522 5516 5531 5530 5535 5536 5538 5525 5542 5553 5554 5557 5556 5554 5557 5554 5551 5545 5543 5541 5537 5533 5532 5530 5527 5525 5526 5526 5526 5523 5523 5520 5518 5516 5515 5512 5510 5509 5508
5509 5502 5489 5476 5495 5481 5534 5545 5544 5542 5539 5537 5544 5547 5551 5554 5552 5552 5553 5551 5546 5543 5541 5536 5532 5529 5528 5525 5523 5521 5519 5520 5518 5516 5514 5513 5510 5507 5504 5502 5500 5497 5497 5495
5513 5504 5494 5483 5464 5510 5533 5537 5538 5534 5536 5541 5540 5546 5551 5549 5549 5550 5548 5545 5540 5536 5533 5528 5525 5523 5521 5520 5517 5515 5513 5512 5510 5507 5506 5506 5501 5497 5491 5492 5487 5485 5485 5482
5512 5509 5490 5480 5486 5511 5536 5540 5545 5543 5533 5547 5545 5545 5547 5546 5537 5536 5533 5533 5529 5528 5525 5520 5518 5518 5517 5516 5512 5508 5509 5505 5503 5500 5498 5497 5493 5487 5483 5481 5476 5475 5475 5474
5496 5497 5489 5506 5487 5512 5536 5538 5541 5531 5537 5547 5546 5545 5541 5538 5537 5536 5530 5527 5525 5522 5520 5516 5515 5512 5512 5510 5507 5503 5500 5498 5496 5494 5493 5489 5483 5478 5474 5471 5469 5466 5463 5461
5506 5505 5505 5506 5502 5493 5532 5533 5532 5532 5538 5537 5536 5538 5535 5533 5531 5529 5526 5520 5517 5515 5514 5512 5508 5506 5503 5503 5502 5496 5492 5490 5489 5489 5485 5479 5474 5471 5467 5464 5463 5461 5458 5455
5501 5506 5515 5504 5506 5523 5530 5529 5531 5531 5532 5533 5533 5533 5531 5529 5530 5527 5523 5516 5513 5512 5510 5508 5504 5501 5498 5497 5496 5490 5488 5485 5482 5480 5476 5472 5469 5466 5463 5461 5459 5456 5453 5449
5511 5513 5508 5512 5521 5520 5521 5524 5525 5525 5523 5524 5525 5525 5525 5526 5526 5524 5520 5514 5509 5506 5504 5503 5501 5498 5493 5493 5491 5486 5482 5479 5477 5475 5469 5466 5463 5461 5459 5458 5456 5452 5448 5445
5497 5507 5504 5504 5514 5520 5517 5521 5516 5515 5514 5513 5515 5516 5517 5517 5517 5518 5517 5513 5507 5504 5502 5500 5498 5497 5493 5489 5486 5482 5478 5476 5474 5470 5466 5462 5458 5455 5453 5452 5450 5447 5444 5441
5496 5499 5493 5492 5507 5513 5511 5509 5507 5507 5507 5504 5506 5506 5506 5508 5507 5508 5509 5512 5508 5502 5500 5498 5499 5494 5489 5486 5483 5479 5476 5473 5468 5463 5460 5457 5453 5450 5448 5445 5442 5441 5438 5436